Location: Madrid
(40.4000°N, 3.6830°W)
Time: 12:48:34
(UTC+02:00)

ISS - Pass Details

Date: 28 May 2020
Orbit: 417 x 419 km, 51.6° (Epoch: 31 May)

Event Time Altitude Azimuth Distance (km) Brightness Sun altitude
Rises 23:56:00 0° 311° (NW) 2,367 1.5 -20.5°
Reaches altitude 10° 23:58:15 10° 323° (NW) 1,501 0.2 -20.7°
Maximum altitude 00:01:18 31° 27° (NNE) 766 -2.2 -21.0°
Enters shadow 00:01:51 29° 47° (NE) 800 -2.3 -21.1°
